Flag Weather past 2 weeks in Merida, Yucatán, Mexico

Now
73 °F

Clear.


Feels Like: 72 °F
Forecast: 73 / 89 °F
Wind: 9 mph from Northeast

Location: Aerop. Internacional Merida - Yuc

Current Time: Nov 21, 2014 at 9:31:23 PM

Latest Report: Nov 21, 2014 at 8:47 PM


Visibility: 7 mi

Pressure: 30.05 "Hg

Humidity: 89%

Dew point: 70 °F

Location of MeridaLocation

Historic Weather in Merida — Graph

°F

Merida temperature yesterday

Maximum temperature yesterday: 79 °F (at 11:46 AM)
Minimum temperature yesterday: 66 °F (at 12:46 AM)
Average temperature yesterday: 72 °F

Past Weeks' High & Low Weather Summary

 TemperatureHumidityPressure
High90 °F (Nov 17, 12:47 PM)100% (Nov 7, 6:46 AM)30.22 "Hg (Nov 7, 6:46 AM)
Low59 °F (Nov 10, 5:58 AM)40% (Nov 11, 1:44 PM)29.59 "Hg (Nov 9, 8:52 AM)
Average74 °F79%30.01 "Hg
* Reported Nov 6 7:47 PM — Nov 21 7:47 PM, Merida, Weather by CustomWeather, © 2014

Note: Actual official high and low records may vary slightly from our data, if they occured in-between our weather recording intervals... More about our weather records

Advertising

Merida weather history for previous 24 hours

 ConditionsComfort  
Time TempWeatherWind HumidityBarometerVisibility
7:47 PM
Nov 21
75 °FClear.6 mph89%30.05 "Hg7 mi
6:46 PM75 °FClear.7 mph89%30.03 "Hg7 mi
4:46 PM81 °FScattered clouds.6 mph70%30.00 "Hg7 mi
2:45 PM82 °FPartly sunny.9 mph66%30.01 "Hg7 mi
1:45 PM82 °FPartly sunny.10 mph66%30.01 "Hg7 mi
12:47 PM84 °FPartly sunny.8 mph66%30.03 "Hg7 mi
11:46 AM84 °FPartly sunny.12 mph66%30.07 "Hg7 mi
10:45 AM82 °FPartly sunny.12 mph70%30.08 "Hg7 mi
9:45 AM81 °FPartly sunny.7 mph79%30.10 "Hg7 mi
9:22 AM81 °FPartly sunny.5 mph79%30.10 "Hg7 mi
8:44 AM79 °FPartly sunny.14 mph84%30.09 "Hg7 mi
7:45 AM75 °FPartly sunny.No wind94%30.08 "Hg6 mi
6:48 AM73 °FPartly sunny.No wind94%30.07 "Hg7 mi
5:48 AM72 °FPassing clouds.No wind94%30.05 "Hg6 mi
2:46 AM68 °FPassing clouds.No wind100%30.00 "Hg7 mi
1:44 AM66 °FClear.5 mph94%30.04 "Hg7 mi
12:45 AM68 °FClear.No wind94%30.05 "Hg7 mi
11:47 PM
Nov 20
68 °FClear.No wind94%30.05 "Hg7 mi
10:45 PM70 °FClear.3 mph88%30.07 "Hg7 mi
Weather by CustomWeather, © 2014

See weather overviewHow to use our weather pages